Location: Capannuccia
(43.7000°N, 11.3000°E)
Time: 08:39:20
(UTC+00:00)

STARLINK-1312 - Pass Details

Date: 30 September 2020
Orbit: 549 x 550 km, 53.0° (Epoch: 23 October)

Event Time Altitude Azimuth Distance (km) Brightness Sun altitude
Rises 04:17:37 0° 190° (S) 2,700 7.0 -10.6°
Reaches altitude 10° 04:20:27 10° 169° (S) 1,812 6.3 -10.0°
Maximum altitude 04:23:08 17° 129° (SE) 1,430 6.4 -9.6°
Drops below altitude 10° 04:25:48 10° 88° (E) 1,821 8.0 -9.1°
Sets 04:28:40 0° 68° (ENE) 2,719 8.8 -8.6°
